www.pogodaiklimat.ru

Погода и климат >> Архив погоды >> Индия >> Khajuraho


ПОГОДА в Khajuraho

  • Прогноз погоды в Khajuraho
  • Монитор погоды в Khajuraho
  • Климат города

АРХИВ ПОГОДЫ в Khajuraho

Время (UTC), дата Ветер
(напр.,м/с)
 
Видим.   Явления Облачность Т
(С)
Тd
(С)
f
(%)
Тe
(С)
Тes
(С)
Комфортность P
(гПа)
Po
(гПа)
Тmin
(С)
Tmax
(С)
R
(мм)
R24
(мм)
S
(см)
03 19.02 штиль 0 2000 м мгла ясно +16.0 +12.4 79 +16 +21 1014.7 1015.0 +12.0
06 19.02 З 1 4000 м мгла ясно +27.0 +13.5 43 +29 +45 жарко 1013.8 1014.0
09 19.02 З 2 4000 м ясно +31.0 +11.5 30 +31 +41 жарко 1010.7 1011.0
12 19.02 СЗ 1 4000 м ясно +29.0 +9.3 29 +29 +29 жарко 1009.6 1010.0 +32.2
03 20.02 штиль 0 4000 м мгла ясно +15.0 +9.2 68 +15 +21 1014.8 1015.0 +10.2
06 20.02 ЮЗ 1 4000 м мгла ясно +28.4 +8.3 28 +28 +45 жарко 1014.4 1014.0
09 20.02 З 1 4000 м ясно +32.0 +5.9 20 +30 +41 жарко 1010.6 1011.0
12 20.02 С 2 4000 м ясно +29.0 +6.5 24 +28 +28 жарко 1011.7 1012.0 +32.4
03 21.02 штиль 0 4000 м мгла ясно +14.0 +10.2 78 +14 +19 1013.1 1013.0 +11.1
06 21.02 З 1 4000 м ясно +30.0 +7.7 25 +29 +46 жарко 1012.0 1012.0
09 21.02 З 2 4000 м ясно +33.0 +7.8 21 +31 +42 жарко 1008.6 1009.0
12 21.02 З 2 4000 м ясно +30.0 +8.2 26 +29 +29 жарко 1008.4 1008.0 +33.4
03 22.02 штиль 0 4000 м мгла ясно +18.0 +12.6 71 +18 +24 1011.3 1011.0 +13.0
06 22.02 З 2 4000 м ясно +31.6 +10.9 28 +32 +46 жарко 1010.2 1010.0
09 22.02 З 3 4000 м ясно +33.6 +5.2 17 +31 +39 жарко 1007.1 1007.0
12 22.02 СЗ 2 4000 м ясно +32.4 +12.7 30 +33 +33 жарко 1006.5 1007.0 +35.0
03 23.02 ЮЗ 2 4000 м мгла ясно +20.0 +13.0 64 +22 +27 комфорт 1011.2 1011.0 +14.5
06 23.02 ЮЗ 2 4000 м ясно +31.0 +7.7 23 +30 +44 жарко 1010.6 1011.0
09 23.02 ЮЗ 2 4000 м ясно +36.0 +7.5 17 +34 +44 очень
жарко
1006.9 1007.0
12 23.02 СЗ 2 4000 м ясно +34.0 +11.8 26 +34 +34 очень
жарко
1006.4 1006.0 +36.4
03 24.02 штиль 0 4000 м мгла ясно +19.4 +14.6 74 +21 +27 комфорт 1013.0 1013.0 +15.0
06 24.02 ЮЗ 2 4000 м ясно +31.6 +11.9 30 +32 +47 жарко 1012.5 1013.0
09 24.02 СЗ 3 4000 м 6/0
[Ac trans]
+36.0 +8.7 19 +34 +40 очень
жарко
1009.4 1009.0
12 24.02 СЗ 2 4000 м 3/0
[Ac trans]
+33.0 +13.1 30 +34 +34 очень
жарко
1009.2 1009.0 +36.5
03 25.02 ЮЗ 2 4000 м мгла 6/3 750 м
[Sc diur, vesp Ac trans]
+19.6 +14.5 72 +22 +24 комфорт 1014.8 1015.0 +16.4
06 25.02 Ю 2 4000 м 6/0
[Ac trans]
+31.0 +12.4 32 +32 +41 жарко 1014.4 1014.0
09 25.02 СЗ 2 4000 м 6/0
[Ac trans]
+34.0 +7.9 20 +32 +39 жарко 1011.3 1011.0
12 25.02 СЗ 2 4000 м ясно +32.4 +10.7 26 +32 +32 жарко 1010.4 1010.0 +36.6

 

Местоположение метеостанции Khajuraho (Madhya Pradesh, Индия): широта 24.98 долгота 79.92 высота над уровнем моря 221 м.

В архиве по умолчанию представлена погода в Khajuraho за последнюю неделю. Архивные данные за месяц целиком и за предыдущие месяцы, начиная с января 2011 года, Вы можете получить, выбрав интересующий диапазон дат из раскрывающегося списка и нажав кнопку "Ввод!".

Внимание! Время в таблицах - всемирное. Для получения местного времени необходимо прибавить поправку, которая в Khajuraho равна 5.5 ч.

Смотрите также архив погоды в соседних городах и на ближайших метеорологических станциях:

Погода в Nowgong (Madhya Pradesh, Индия) (48 км)
Погода в Banda (Uttar Pradesh, Индия) (71 км)
Погода в Satna (Madhya Pradesh, Индия) (103 км)
Погода в Hamirpur (Uttar Pradesh, Индия) (110 км)
Погода в Tikamgarh (Madhya Pradesh, Индия) (112 км)
Погода в Damoh (Madhya Pradesh, Индия) (136 км)
Погода в Jhansi (Uttar Pradesh, Индия) (141 км)
Погода в Rewa (Madhya Pradesh, Индия) (148 км)
Погода в Sagar (Madhya Pradesh, Индия) (173 км)
Погода в Umaria (Madhya Pradesh, Индия) (188 км)

Пояснения к столбцам:

Ветер - указаны скорость ветра в м/с - средняя за 10 мин, порывы в срок и между сроками (в фигурных скобках) и направление, откуда дует ветер: С - северный, СВ - северо-восточный, В - восточный, ЮВ - юго-восточный, Ю - южный, ЮЗ - юго-западный, З - западный, СЗ - северо-западный.
Видимость - горизонтальная дальность видимости в метрах или километрах. При видимости от 1 до 10 км при отсутствии осадков обычно наблюдается дымка, при ухудшении видимости до 1 км и менее - туман. В сухую погоду видимость может ухудшаться дымом, пылью или мглою.
Явления - указаны атмосферные явления, наблюдавшиеся в срок или в последний час перед сроком; фигурными скобками обозначены явления, наблюдавшиеся между сроками (за 1-3 часа до срока); квадратными скобками обозначены град или гололедные отложения с указанием их диаметра в мм.
Облачность - указаны через наклонную черту общая и нижняя облачность в баллах и высота нижней границы облаков в метрах; квадратными скобками обозначены формы облаков: Ci - перистые, Cs - перисто-слоистые, Cc - перисто-кучевые, Ac - высококучевые, As - высокослоистые, Sc - слоисто-кучевые, Ns - слоисто-дождевые, Cu - кучевые, Cb - кучево-дождевые. Подробнее классификацию облаков см. в Атласе облаков (PDF).
T - Температура воздуха - температура, измеренная на высоте 2 м над землей.
Td - Температура точки росы - температура, при понижении до которой содержащийся в воздухе водяной пар достигнет насыщения.
f - Относительная влажность воздуха - влажноcть воздуха, измеренная на высоте 2 м над землей.
Te - Эффективная температура - температура, которую ощущает одетый по сезону человек в тени. Характеристика душности погоды. При расчете учитывается влияние влажности воздуха и скорости ветра на теплоощущения человека.
Tes - Эффективная температура на солнце - температура, которую ощущает человек, с поправкой на солнечный нагрев. Характеристика знойности погоды. Зависит от высоты солнца над горизонтом, облачности и скорости ветра. Ночью, в пасмурную погоду, а также при ветре 12 м/с и более поправка равна нулю.
P - Атмосферное давление - приведенное к уровню моря атмосферное давление.
Po - Атмосферное давление - измеренное на уровне метеостанции атмосферное давление.
Tmin - Минимальная температура - минимум температуры воздуха на высоте 2 м над землей.
Tmax - Максимальная температура - максимум температуры воздуха на высоте 2 м над землей.
R - Количество осадков - Количество выпавших осадков за период времени, мм. При наведении курсора мыши на число - период времени, за который выпало указанное количество осадков.
R24 - Количество осадков - Количество выпавших осадков за 24 часа, мм.
S - Снежный покров - Высота снежного покрова, см. При наведении курсора мыши на число - состояние снежного покрова и степень покрытия местности в баллах.